NIMBUS 2 DEB

Satellite information

Favourite Embed

Satellite Type and Status

DEBRISIN ORBIT

Key statistics

Satellite NIMBUS 2 DEB at a glance.

Uptime

21709

Days in orbit

Revolutions

≈ 13.8

Per day

Orbit

SSO

Sun Synchronous Orbit

Inclination

100.5

Latest

Satellite identification and parameters

Extended collection of information and parameters for NIMBUS 2 DEB.

Object identification

Identified? True

Debris? True

Object name: NIMBUS 2 DEB

International designator: 1966-040E

Object number (NORAD): 25612

Object ID (CCSDS): 25612

Country: UNITED STATES OF AMERICA (US)

Current information (Y/N): Y

RCS size: SMALL

Orbital parameters

Period: 104.591 minutes

Inclination: 100.4789 deg

SMA: 7353.436 km

Apoapsis: 1005.064 km

Periapsis: 945.538 km

RAAN: 172.4258 deg

Eccentricy: 0.0040475

Argument of periapsis: 26.7072 deg

Mean anomaly: 351.6324 deg

Mean motion: 13.76788681 rev/day

Mean motion (dot): 0.0000573 rev/day2

B* drag term: 0.005839225 1/REarth

Two-line elements (TLE)

Creation date: Oct. 19, 2025, 2:20 a.m.

Reference frame: TEME

Reference center: EARTH

Epoch: Oct. 18, 2025, 10:31 p.m. UTC

TLE line 0: 0 NIMBUS 2 DEB

TLE line 1: 1 25612U 66040E 25291.93833360 .00005730 00000-0 58392-2 0 9990

TLE line 2: 2 25612 100.4789 172.4258 0040475 26.7072 351.6324 13.76788681402353

Live tracking on map

Real-time ground track for satellite NIMBUS 2 DEB.

In-orbit conjunctions

A list of the most updated potential collisions computed for object NIMBUS 2 DEB.

Target Orbit TCA Probability of collision Miss distance Type
COSMOS 1225 LEO 2025-08-13 01:04:40 0.0001165739 373.0 (m) PAYLOAD
SL-8 R/B LEO 2025-04-05 18:08:05 0.0006978844 77.0 (m) ROCKET BODY
SL-8 R/B LEO 2025-02-22 02:50:54 0.0001700641 160.0 (m) ROCKET BODY
COSMOS 1275 LEO 2024-11-12 08:32:24 0.0007770574 293.0 (m) PAYLOAD
SL-8 R/B LEO 2024-07-09 23:21:25 0.0001200214 490.0 (m) ROCKET BODY

Associated space launch

Nimbus 2, the second in a series of second-generation meteorological research-and-development satellites, added an additional medium-resolution infrared radiometer (MRIR) compared to Nimbus 1.

NIMBUS 2 DEB was lifted into orbit during the mission ‘Thor SLV-2A Agena B | Nimbus 2’, on board a Thor SLV-2A Agena B space rocket.

The launch took place on May 15, 1966, 7:55 a.m. from Space Launch Complex 2E.

For more information about the launch, click the button.

Launch to space Thor SLV-2A Agena B | Nimbus 2
Thor SLV-2A Agena B | Nimbus 2

Agency: N/A

Status: Launch Successful

Launch date: May 15, 1966, 7:55 a.m. UTC

Rocket: Thor SLV-2A Agena B

Launch pad: Space Launch Complex 2E

Location: Vandenberg SFB, CA, USA

...

Latest news about this satellite

There are no fresh news available about this satellite. Check back as we update our databases every day.


Newsletter sign-up

Weekly statistics, charts and insights to help you stay on top of the space industry.